CAPE
0 0 0 0 0 0 0 0 0 0 0 0 0 0 0 0 0 0 0 0 0 0 0 0 0 0 0 0 0 0 0 0
0 0 0 0 0 0 0 0 0 0 0 0 0 0 0 0 0 0 0 0 0 0 0 0 0 0 0 0 0 0 0 0
0 0 0 0 0 0 0 0 0 0 0 0 0 0 0 0 0 0 0 0 0 0 0 0 0 0 0 0 0 0 0 0
0 0 0 0 0 0 0 0 0 0 0 0 0 0 0 0 0 0 0 0 0 0 0 0 0 0 0 0 0 0 0 0
0 0 0 0 0 0 0 0 0 0 0 0 0 0 0 0 0 0 0 0 0 0 0 0 0 0 0 0 0 0 0 0
0 0 0 0 0 0 0 0 0 0 0 0 0 0 0 0 0 0 0 0 0 0 0 0 0 0 0 0 0 0 0 0
0 0 0 0 0 0 0 0 0 0 0 0 0 0 0 0 0 0 0 0 0 0 0 0 0 0 0 0 0 0 0 0
0 0 0 0 0 0 0 0 0 0 0 0 0 0 0 0 0 0 0 0 0 0 0 0 0 0 0 0 0 0 0 0
0 0 0 0 0 0 0 0 0 0 0 0 0 0 0 0 0 0 0 0 0 0 0 0 0 0 0 0 0 0 0 0
0 0 0 0 0 0 0 0 0 0 0 0 0 0 0 0 0 0 0 0 0 0 0 0 0 0 0 0 0 0 0 0
0 0 0 0 0 0 0 0 0 0 0 0 0 0 0 0 0 0 0 0 0 0 0 0 0 0 0 0 0 0 0 0
0 0 0 0 0 0 0 0 0 0 0 0 0 0 0 0 0 0 0 0 0 0 0 0 0 0 0 0 0 0 0 0
0 0 0 0 0 0 0 0 0 0 0 0 0 0 0 0 0 0 0 0 0 0 0 0 0 0 0 0 0 0 0 0
0 0 0 0 0 0 0 0 0 0 0 0 0 0 0 0 0 0 0 0 0 0 0 0 0 0 0 0 0 0 0 0
0 0 0 0 0 0 0 0 0 0 0 0 0 0 0 0 0 0 0 0 0 0 0 0 0 0 0 0 1 0 0 0
0 0 0 0 0 0 0 0 0 0 0 0 0 0 0 0 0 0 0 0 0 0 0 0 0 0 0 0 0 0 0 0
0 0 0 0 0 0 0 0 0 0 0 0 0 0 0 0 0 0 0 0 0 0 0 0 0 0 0 0 0 0 0 0
0 0 0 0 0 0 0 0 0 0 0 0 0 0 0 0 0 0 0 0 0 0 0 0 0 0 0 0 0 3 0 0
0 0 0 0 0 0 0 0 0 0 0 0 0 0 0 0 0 0 0 0 0 0 0 0 0 0 0 0 0 0 0 1
0 0 0 0 0 0 0 0 0 0 0 0 0 0 0 0 0 0 0 0 0 0 0 0 0 0 0 0 0 0 0 0
CIN
0 0 0 -1 0 0 0 0 0 0 0 0 0 0 0 0 0 0 0 0 0 0 0 0 0 0 0 0 0 0 0 0
0 0 0 0 0 0 0 0 0 0 0 0 0 0 0 0 0 0 0 0 0 0 0 0 0 0 0 0 0 0 0 0
0 0 0 0 0 0 0 0 0 0 0 0 0 0 0 0 0 0 0 0 0 0 0 0 0 0 0 0 0 0 0 0
0 0 0 0 0 0 0 0 0 0 0 0 0 0 0 0 0 0 0 0 0 0 0 0 0 0 0 0 0 0 0 0
0 0 0 0 0 0 0 0 0 0 0 0 0 0 0 0 0 0 0 0 0 0 0 0 0 0 0 0 0 0 0 0
0 0 0 0 0 0 0 0 0 0 0 0 0 0 0 0 0 0 0 0 0 0 0 0 0 0 0 0 0 0 0 0
0 0 0 0 0 0 0 0 0 0 0 0 0 0 0 0 0 0 0 0 0 0 0 0 0 0 0 0 0 0 0 0
0 0 0 0 0 0 0 0 0 0 0 0 0 0 0 0 0 0 0 0 0 0 0 0 0 0 0 0 0 0 0 0
0 0 0 0 0 0 0 0 0 0 0 0 0 0 0 0 0 0 0 0 0 0 0 0 0 0 0 0 0 0 0 0
0 0 0 0 0 0 0 0 0 0 0 0 0 0 0 0 0 0 0 0 0 0 0 0 0 0 0 0 0 0 0 0
0 0 0 0 0 0 0 0 0 0 0 0 0 0 0 0 0 0 0 0 0 0 0 0 0 0 0 0 0 0 0 0
0 0 0 0 0 0 0 0 0 0 0 0 0 0 0 0 0 0 0 0 0 0 0 0 0 0 0 0 0 0 0 0
0 0 0 0 0 0 0 0 0 0 0 0 0 0 0 0 0 0 0 0 0 0 0 0 0 0 0 0 0 0 0 0
0 0 0 0 0 0 0 0 0 0 0 0 0 0 0 0 0 0 0 0 0 0 0 0 0 0 0 0 0 0 0 0
0 0 0 0 0 0 0 0 0 0 0 0 0 0 0 0 0 0 0 0 0 0 0 0 0 0 0 0 -2 -1 0 0
0 0 0 0 0 0 0 0 0 0 0 0 0 0 0 0 0 0 0 0 0 0 0 0 0 -8 0 0 0 0 0 0
0 0 0 0 0 0 0 0 0 0 0 0 0 0 0 0 0 0 0 0 0 0 0 0 0 0 0 0 0 0 0 0
0 0 0 0 0 0 0 0 0 0 0 0 0 0 0 0 0 0 0 0 0 0 0 0 0 0 0 0 0 -4 -1 0
0 0 0 0 0 0 0 0 0 0 0 0 0 0 0 0 0 0 0 0 0 0 0 0 0 0 0 0 0 0 0 0
0 0 0 0 0 0 0 0 0 0 0 0 0 0 0 0 0 0 0 0 0 0 0 0 0 0 0 0 0 0 0 0
Wind_Speed
17 16 16 17 18 18 19 20 21 22 23 23 24 26 27 27 29 31 31 32 33 34 35 34 34 35 35 34 34 33 32 28
15 16 16 16 17 17 18 20 21 23 24 23 25 25 30 31 30 31 32 33 33 35 35 34 35 36 34 32 32 31 30 26
14 14 14 15 16 17 18 20 22 24 25 27 27 27 30 33 32 33 32 32 33 35 35 35 36 36 35 34 31 29 29 27
13 13 13 14 16 17 18 20 22 24 25 27 29 30 32 33 34 32 32 33 35 36 36 36 36 35 35 35 34 30 29 27
12 12 13 15 16 17 18 19 21 24 26 28 29 31 33 33 33 32 33 35 35 36 35 36 36 36 35 35 34 27 28 27
13 13 14 15 16 17 17 19 21 25 28 28 31 32 33 34 34 33 36 36 38 36 35 36 37 35 35 34 34 31 30 29
15 15 17 18 19 19 20 21 24 26 27 29 30 31 33 35 35 34 36 37 37 35 36 36 36 36 35 34 33 34 33 31
18 19 19 20 21 21 21 23 25 27 28 29 28 31 33 35 36 36 37 36 35 35 36 37 36 36 36 34 34 34 33 32
19 20 21 22 22 21 22 24 26 28 26 27 28 31 35 36 36 36 36 35 36 37 36 35 36 37 36 34 34 34 33 33
20 20 22 23 22 22 23 26 27 27 25 26 29 31 34 36 36 36 36 36 36 36 35 36 37 37 36 34 34 33 32 32
22 23 25 24 22 23 25 27 27 27 25 26 28 30 33 34 35 35 35 36 36 35 35 36 37 38 35 34 35 30 27 28
24 25 26 24 24 26 28 28 30 31 26 26 27 30 32 32 33 34 34 35 35 35 34 35 35 36 35 35 33 29 22 26
26 27 27 27 27 29 29 31 31 31 27 28 29 29 30 30 31 32 33 34 35 34 33 36 35 35 36 38 32 30 18 28
26 27 28 28 29 30 29 30 30 28 30 33 33 30 30 29 30 32 34 35 36 34 34 35 33 33 36 34 33 29 24 37
27 27 28 29 30 31 31 30 30 32 33 35 35 33 31 29 31 33 35 35 36 34 34 34 34 32 32 30 32 29 39 23
27 27 28 30 31 32 33 33 34 32 32 33 34 33 32 33 33 34 35 35 35 34 32 32 32 35 31 27 25 29 32 34
27 27 29 30 31 32 33 34 32 32 33 34 33 34 34 34 35 35 35 35 34 33 33 33 32 31 29 30 31 28 26 29
27 28 29 30 31 32 33 34 34 34 34 34 34 34 34 34 34 34 35 35 34 31 32 32 31 29 29 30 31 31 30 28
27 29 29 30 31 33 33 34 33 34 34 35 35 36 35 35 34 34 35 34 33 30 31 30 29 31 35 34 30 27 27 27
28 29 29 30 32 32 33 33 33 33 34 34 34 35 35 33 34 32 33 33 34 32 29 28 28 33 38 33 29 27 25 24
Wind_Direction
49 45 44 41 38 37 33 26 21 18 13 10 7 2 359 356 352 350 348 348 345 344 344 342 342 340 336 335 334 334 336 335
53 46 47 44 40 36 29 22 17 12 5 3 359 357 352 351 348 347 345 342 343 343 343 342 340 338 338 338 339 337 337 336
58 55 50 43 36 28 23 18 13 9 5 3 1 356 353 350 348 346 348 348 345 342 342 341 338 337 337 334 335 336 334 333
65 58 53 42 29 21 17 13 9 7 4 2 359 355 351 349 347 349 349 346 343 342 340 339 336 335 334 333 330 329 330 329
72 60 49 32 25 19 13 12 8 5 4 359 356 354 351 349 349 349 347 344 343 340 341 339 336 335 333 332 334 334 330 330
73 62 40 27 25 18 14 7 5 1 357 357 354 352 352 350 349 347 345 343 340 340 340 340 336 337 335 334 333 334 330 327
58 52 44 38 26 17 12 8 2 358 359 356 357 355 353 350 347 346 344 343 342 341 339 340 339 337 335 332 331 328 326 323
56 42 32 23 16 13 11 5 2 359 357 357 360 357 354 350 348 346 344 344 345 344 341 340 339 337 334 333 329 327 325 322
37 30 23 16 14 13 8 5 360 357 360 1 360 356 353 351 349 347 346 345 343 342 341 342 340 337 334 334 332 328 326 321
32 27 20 15 13 11 7 2 358 357 358 357 355 355 355 353 350 348 348 347 345 344 343 341 339 337 336 335 332 328 328 329
25 17 11 11 13 10 3 359 357 355 354 354 354 354 355 354 353 351 350 348 347 346 344 343 340 338 337 335 331 330 330 334
16 10 9 10 7 2 0 360 356 354 354 354 354 353 354 353 353 353 352 351 347 346 345 344 342 339 338 334 333 332 331 333
11 9 9 7 2 359 357 354 355 358 1 356 351 352 353 354 355 355 354 352 349 347 346 343 341 342 337 332 334 334 334 327
12 12 9 7 4 1 1 1 2 2 358 357 356 351 353 355 356 354 353 351 348 347 346 343 343 343 339 336 329 331 326 316
13 11 10 8 5 3 1 0 359 356 356 356 357 358 359 359 354 353 351 350 348 347 346 344 341 343 343 339 330 324 318 325
13 12 10 8 7 5 3 1 357 359 358 357 357 358 357 354 354 352 350 350 349 349 350 348 344 339 341 342 337 328 322 315
15 13 10 8 7 6 4 2 2 1 360 359 359 357 356 355 354 353 353 352 351 351 350 348 347 344 342 338 333 330 325 317
14 11 9 9 8 7 5 4 3 2 2 360 359 358 357 357 355 355 354 353 352 353 352 350 350 349 345 339 333 326 323 320
12 9 10 9 9 8 7 7 6 4 2 0 359 358 357 357 356 355 355 355 354 354 352 353 352 348 342 336 333 327 323 319
12 11 10 10 9 10 11 10 8 6 4 3 1 359 358 359 358 359 358 358 356 356 354 353 351 345 340 338 333 329 326 320